Home   Weather   Mesquite   Past weeks
Flag for USA

Past Weather in Mesquite, Texas, USA — Yesterday and Last 2 Weeks

Now
73 °F

Sunny.


Feels Like: 77 °F
Forecast: 76 / 51 °F
Wind: 5 mph from Southeast

Location: Mesquite Metro Airport

Current Time: Oct 13, 2019 at 3:01:52 pm

Latest Report: Oct 13, 2019 at 1:50 pm


Visibility: 10 mi

Pressure: 30.01 "Hg

Humidity: 33%

Dew Point: 43 °F

Location of MesquiteLocation

Past Weather in Mesquite — Graph

°F

Mesquite Temperature Yesterday

Maximum temperature yesterday: 64 °F (at 2:50 pm)
Minimum temperature yesterday: 37 °F (at 6:50 am)
Average temperature yesterday: 49 °F

High & Low Weather Summary for the Past Weeks

 TemperatureHumidityPressure
High95 °F (Oct 2, 4:50 pm)100% (Sep 30, 6:59 am)30.31 "Hg (Sep 30, 6:59 am)
Low37 °F (Oct 12, 6:50 am)19% (Oct 12, 4:50 pm)29.73 "Hg (Oct 10, 7:50 pm)
Average71 °F70%30.03 "Hg
* Reported Sep 28 1:50 pm — Oct 13 1:50 pm, Mesquite. Weather by CustomWeather, © 2019

Note: Actual official high and low records may vary slightly from our data, if they occured in-between our weather recording intervals... More about our weather records

Advertising

Mesquite Weather History for the Previous 24 Hours

Scroll right to see more
 ConditionsComfort  
Time TempWeatherWind HumidityBarometerVisibility
1:50 pm
Sun, Oct 13
73 °FSunny.5 mph33%30.01 "Hg10 mi
12:50 pm72 °FPassing clouds.6 mph33%30.04 "Hg10 mi
11:50 am68 °FPassing clouds.3 mph40%30.06 "Hg10 mi
10:50 am63 °FPartly sunny.9 mph56%30.07 "Hg10 mi
9:50 am59 °FOvercast.9 mph68%30.07 "Hg10 mi
8:50 am55 °FOvercast.9 mph77%30.07 "Hg10 mi
7:50 am55 °FOvercast.9 mph77%30.06 "Hg10 mi
6:50 am54 °FOvercast.5 mph82%30.06 "Hg10 mi
6:35 am54 °FOvercast.3 mph86%30.05 "Hg10 mi
6:15 am54 °FOvercast.3 mph85%30.06 "Hg10 mi
5:55 am54 °FOvercast.3 mph84%30.05 "Hg10 mi
5:35 am54 °FOvercast.No wind81%30.06 "Hg10 mi
5:15 am53 °FOvercast.No wind83%30.05 "Hg10 mi
4:55 am54 °FOvercast.No wind81%30.05 "Hg10 mi
4:35 am53 °FOvercast.No wind81%30.05 "Hg10 mi
4:15 am53 °FOvercast.No wind76%30.05 "Hg10 mi
3:35 am51 °FOvercast.No wind82%30.04 "Hg10 mi
3:15 am51 °FPartly cloudy.No wind81%30.04 "Hg10 mi
2:55 am51 °FMostly cloudy.No wind83%30.04 "Hg10 mi
2:35 am51 °FPartly cloudy.No wind80%30.05 "Hg10 mi
2:15 am50 °FPassing clouds.No wind80%30.05 "Hg10 mi
1:55 am49 °FPartly cloudy.No wind83%30.04 "Hg10 mi
1:35 am49 °FPassing clouds.No wind93%30.05 "Hg10 mi
1:15 am51 °FPassing clouds.No wind70%30.04 "Hg10 mi
12:55 am48 °FPassing clouds.No wind88%30.05 "Hg10 mi
12:35 am51 °FPassing clouds.No wind69%30.05 "Hg10 mi
12:15 am50 °FClear.No wind67%30.05 "Hg10 mi
11:55 pm
Sat, Oct 12
51 °FClear.No wind68%30.05 "Hg10 mi
11:35 pm50 °FClear.No wind69%30.05 "Hg10 mi
11:15 pm51 °FClear.No wind61%30.05 "Hg10 mi
10:55 pm50 °FClear.No wind63%30.05 "Hg10 mi
10:35 pm51 °FClear.No wind59%30.06 "Hg10 mi
10:15 pm51 °FClear.No wind69%30.06 "Hg10 mi
9:35 pm53 °FClear.No wind61%30.07 "Hg10 mi
9:15 pm51 °FClear.No wind66%30.07 "Hg10 mi
8:55 pm52 °FClear.No wind71%30.07 "Hg10 mi
7:50 pm55 °FClear.No wind47%30.08 "Hg10 mi
6:50 pm61 °FSunny.No wind42%30.08 "Hg10 mi
5:50 pm64 °FSunny.3 mph24%30.09 "Hg10 mi
4:50 pm64 °FSunny.No wind19%30.12 "Hg10 mi
3:50 pm64 °FSunny.5 mph22%30.14 "Hg10 mi
Weather by CustomWeather, © 2019

See weather overview